Location: Newark
(41.8083°N, 72.2500°W)
Time: 01:49:34
(UTC+00:00)

Vanguard 1 Rocket - Pass Details

Date: 11 December 2021
Orbit: 651 x 4224 km, 34.3° (Epoch: 15 January)

Event Time Altitude Azimuth Distance (km) Brightness Sun altitude
Exits shadow 09:43:31 32° 253° (WSW) 3,381 9.7 -25.8°
Maximum altitude 09:50:32 54° 196° (SSW) 3,281 10.0 -24.5°
Drops below altitude 10° 10:12:10 10° 128° (SE) 7,199 12.9 -20.5°
Sets 10:18:33 0° 124° (SE) 8,415 13.6 -19.4°
